STARLINK-34313, 64166

Orbit data source: Space-Track

STARLINK-34313, 64166 is a payload satellite owned by SpaceX/Seattle (US) in SSO that was launched on Tue, 27 May 2025 UTC via an FALCON 9 launch vehicle from the Air Force Western Test Range (AFWTR). Payload-class satellites include a variety of spacecraft equipped with specific instruments for various scientific and technological missions. These include communications satellites like Starlink; space stations such as the ISS; scientific satellites like the Hubble; Earth observation satellites from companies like Planet Labs, Umbra, and HawkEye 360; GPS; miniature CubeSats for education and research; and military/defense satellites.

Loading next visibility...
Identifier
64166, 2025-112W
Orbit
SSO
Country
Flag of USUS
Related business
Manufacturer
SpaceX/Seattle
Mission
Operational Commercial Communications
Bus & Motor
STARLINK V2MO, Unknown motor
Mass
575 kg wet, ~530 kg dry
Launch date (UTC)
2025-05-27 (1 year ago)
Launch vehicle
FALCON 9
Launch site
Air Force Western Test Range (AFWTR)
Object type
Payload
Rocket body
Debris
Shape & HBR
Box + 1 Pan, 17.7 m
Radar Cross Section
41.120 m², Large (>1 m²)

Expand to show TLE details & history
Last TLE update: 17 hours ago

TLE from 17 hours ago
0 STARLINK-34313
1 64166U 25112W   26236.41634944  .00020223  00000-0  62687-3 0  9999
2 64166  97.2838 283.8253 0002031 101.4351 258.7120 15.33453764 68598
Epoch: 2026-08-24T09:59Z
TLE epoch observation values (Epoch: 2026-08-24T09:59:32.591Z)
Latitude
-0.00003°
Longitude
161.24114°
Altitude
468.902 km
Speed
7.632 km/s
True Right ascension
18h 55m 18s
True Declination
0° 00' 00"
Sunlit
Object was in full shadow at epoch
Visualization orbit readout
Latitude
Unknown
Longitude
Unknown
Altitude
Unknown
Speed
Unknown
Apparent Right ascension
Unknown
Apparent Declination
Unknown
Sunlit
N/A
Visualization observer readout
Local Sidereal Time
18:42:42
Azimuth
Unknown
Elevation
Unknown
Doppler factor
Unknown
Orbital elements
Apogee altitude
463.849 km
Perigee altitude
461.07 km
Semi-major axis
6,840.597 km
Eccentricity
0.0002
Inclination
97.2838°
RAAN
283.8253°
Arg. of periapsis
101.4351°
True anomaly
258.68918°
Mean anomaly
258.712°
Eccentric anomaly
258.70059°
Mean motion
3.83621 °/min
Orbital period
93.84 mins
BSTAR
0.00062687
Loading maneuver chart data...
Computing Atmospheric mass density...
Loading historical data...
Loading historical data...
Loading historical data...
Loading historical data...
Loading historical data...
Loading historical data...
Loading historical data...

Documentation

Showing up to 5 results
|